Regional Weather Roundup
Issued by NWS

Home | Current Version | Previous Version | Graphics & Text | Print | Product List | Glossary On
Versions: 1 2 3 4 5 6 7 8 9 10 11 12 13 14 15 16 17 18 19 20 21 22 23 24 25 26 27 28 29 30 31 32 33 34 35 36 37 38 39 40 41 42 43 44 45 46 47 48 49 50
000
ASUS43 KIND 260109
RWRIN

WEATHER ROUNDUP FOR INDIANA
NATIONAL WEATHER SERVICE INDIANAPOLIS IN
800 PM EST SUN JAN 25 2015

NOTE: "FAIR" INDICATES FEW OR NO CLOUDS BELOW 12,000 FEET WITH NO
SIGNIFICANT WEATHER AND/OR OBSTRUCTIONS TO VISIBILITY.

* - STATION DOES NOT REPORT WEATHER SUCH AS PRECIPITATION OR FOG.

+ - STATION NOT QUALITY CONTROLLED BY THE NATIONAL WEATHER SERVICE.
    USE DATA WITH CAUTION...ESPECIALLY DEWPOINT AND RELATIVE
    HUMIDITY OBSERVATIONS.

INZ001>003-010>013-019-020-260200-
NORTHWEST INDIANA

CITY           SKY/WX    TMP DP  RH WIND       PRES   REMARKS
KNOX *+        CLOUDY    25  15  65 NE14G20   29.90R WCI  13
LA PORTE +     CLOUDY    26  22  84 NE9       29.93R WCI  17
MICHIGAN CITY+ MIX PCPN  27  18  69 N6        29.95R WCI  20
MONTICELLO +   FLURRIES  26  24  91 NE10G17   29.87R WCI  17
RENSSELAER +   FLURRIES  28  28 100 N14       29.90R WCI  17
VALPARAISO     LGT SNOW  25  20  81 NE10      29.93R WCI  15

$$

LMZ046-743>745-260200-
SOUTHERN LAKE MICHIGAN

STATION/POSITION TIME  TEMP WIND        PRES
                       AIR  DIR/SP/G
                 (UTC) (F)  (DEG/KT/KT) (MB)
MICHIGAN CITY    0100   26   20/ 17/ 21   N/A

$$

INZ004-005-014>016-021>024-260200-
NORTH CENTRAL INDIANA

CITY           SKY/WX    TMP DP  RH WIND       PRES   REMARKS
GOSHEN         LGT SNOW  24  19  81 NE16G22   29.90R WCI  11
LOGANSPORT +   CLOUDY    25  21  86 NE9G18    29.87R WCI  15
PERU/GRISSOM   CLOUDY    23  19  85 NE21      29.84R WCI   8
ROCHESTER +    FLURRIES  28  27  93 NE9       29.87R WCI  20
SOUTH BEND     CLOUDY    24  17  74 NE14      29.93R WCI  12
WARSAW +       LGT SNOW  25  21  86 NE15G21   29.88R WCI  12

$$

INZ006>009-017-018-025>027-260200-
NORTHEAST INDIANA

CITY           SKY/WX    TMP DP  RH WIND       PRES   REMARKS
ANGOLA *+      CLOUDY    21  18  86 E9        29.88S WCI  11
AUBURN +       LGT SNOW  23  19  86 NE12      29.89R WCI  12
FORT WAYNE     LGT SNOW  20  17  88 NE21      29.87R FOG     WCI   4
HUNTINGTON +   LGT SNOW  20  15  79 NE14G22   29.87R WCI   7

$$

INZ028-029-035-036-043>045-051>053-260200-
WEST CENTRAL INDIANA

CITY           SKY/WX    TMP DP  RH WIND       PRES   REMARKS
CRAWFORDSVL +  CLOUDY    25  19  80 N18       29.81  WCI  11
GREENCASTLE +  CLOUDY    30  25  80 N17G25    29.77R WCI  18
LAFAYETTE      LGT SNOW  26  22  84 NE14      29.86R FOG     WCI  14
TERRE HAUTE    CLOUDY    32  29  88 N15       29.77R WCI  22

$$

INZ030>032-037>040-046>048-054>057-064-065-260200-
CENTRAL INDIANA

CITY           SKY/WX    TMP DP  RH WIND       PRES   REMARKS
CP ATTERBURY + LGT SNOW  32  32 100 N8        29.72R WCI  25
COLUMBUS       LGT SNOW  32  30  93 N7        29.71S FOG     WCI  26
INDIANAPOLIS   LGT SNOW  25  23  92 N20       29.76R FOG     WCI  11
-EAGLE CREEK   CLOUDY    26  23  88 NE12G18   29.77R WCI  16
KOKOMO *+      CLOUDY    23  18  80 NE17      29.84R WCI   9
MARION +       LGT SNOW  22  19  89 NE20G26   29.83R WCI   7
MT COMFORT *+  CLOUDY    27  27 100 NE21G26   29.77R WCI  13
SHELBYVILLE    LGT SNOW  31  26  82 NE14      29.73R WCI  21
ZIONSVILLE +   CLOUDY    26  21  82 NE22      29.80R WCI  11

$$

INZ033-034-041-042-049-050-058-059-260200-
EAST CENTRAL INDIANA

CITY           SKY/WX    TMP DP  RH WIND       PRES   REMARKS
MUNCIE         LGT SNOW  22  18  85 NE22      29.80R FOG     WCI   6

$$

INZ060-061-067>069-081>083-085>088-260200-
SOUTHWEST INDIANA

CITY           SKY/WX    TMP DP  RH WIND       PRES   REMARKS
EVANSVILLE     CLOUDY    42  40  92 CALM      29.69R FOG
HUNTINGBURG *+ CLOUDY    39  36  87 CALM      29.68R
WASHINGTON +   CLOUDY    39  35  87 N12       29.69R FOG

$$

INZ062-063-066-070>080-084-089>092-260200-
SOUTH CENTRAL AND SOUTHEAST INDIANA

CITY           SKY/WX    TMP DP  RH WIND       PRES   REMARKS
BLOOMINGTON    LGT RAIN  37  36  96 NE10      29.70R FOG
SEYMOUR +      LGT RAIN  39  39 100 N5        29.69R

$$




USA.gov is the U.S. government's official web portal to all federal, state and local government web resources and services.